User: anonymous   Login
Location: Brno
(49.2000°N, 16.6330°E)
Time: 10:01:54
(UTC+02:00)
Language:

Cosmos 1459 Rocket - Orbit

View from above orbital plane
View from above orbital plane
View from above satellite
View from above satellite

Ground track
Ground track

The orbit data is extracted from the following two-line orbital elements,

1 14059U 83042B   15090.51673448  .00000185  00000-0  16610-3 0  9990
2 14059 082.9700 302.1157 0043087 019.7114 042.3662 13.78504290604340
Epoch (UTC): 31 March 2015 12:24:05
Eccentricity: 0.0043087
inclination: 82.9700°
perigee height: 937 km
apogee height: 1001 km
right ascension of ascending node: 302.1157°
argument of perigee: 19.7114°
revolutions per day: 13.78504290
mean anomaly at epoch: 42.3662°
orbit number at epoch: 60434

The dashed part of the orbit path shows where the satellite is in the earth's shadow,  

DLR